SWA5611 KLAX-KTUS

Flight info

Callsign SWA5611
Flight time N/A
Altitude 37000
Route DOTSS2 CNERY BLH J50 GBN DINGO6
Aircraft B738/M-SDE2E3GHIJ4J7P2RWZ/LB1D1

Departure

Time 2026-05-08 01:20
Airport Los Angeles International Airport (KLAX)

Arrival

Time N/A
Airport Tucson International Airport (KTUS)
Time Latitude Longitude Altitude Speed Heading
2026-05-08 00:56 33.94802 -118.40075 125 ft 0 kts 227°
2026-05-08 01:12 33.94812 -118.40063 119 ft 4 kts 236°
2026-05-08 01:12 33.94822 -118.40035 121 ft 4 kts 271°
2026-05-08 01:12 33.94814 -118.40010 119 ft 4 kts 333°
2026-05-08 01:12 33.94805 -118.40005 121 ft 0 kts 356°
2026-05-08 01:15 33.94805 -118.40006 121 ft 1 kts 356°
2026-05-08 01:15 33.94848 -118.40045 121 ft 11 kts 298°
2026-05-08 01:16 33.94923 -118.40027 123 ft 15 kts 79°
2026-05-08 01:16 33.94950 -118.39928 123 ft 5 kts 34°
2026-05-08 01:16 33.94951 -118.39928 123 ft 0 kts 33°
2026-05-08 01:18 33.94972 -118.39916 121 ft 8 kts 18°
2026-05-08 01:18 33.95041 -118.39944 124 ft 11 kts 297°
2026-05-08 01:18 33.95042 -118.39980 124 ft 0 kts 259°
2026-05-08 01:19 33.95042 -118.39983 123 ft 3 kts 259°
2026-05-08 01:19 33.95013 -118.40247 123 ft 66 kts 263°
2026-05-08 01:19 33.94929 -118.41057 125 ft 126 kts 263°
2026-05-08 01:19 33.94832 -118.42247 367 ft 153 kts 263°
2026-05-08 01:20 33.94729 -118.43561 933 ft 160 kts 261°
2026-05-08 01:20 33.94558 -118.44897 1644 ft 166 kts 264°
2026-05-08 01:20 33.94440 -118.46317 2199 ft 178 kts 261°
2026-05-08 01:20 33.94393 -118.47872 2643 ft 193 kts 275°
2026-05-08 01:21 33.94385 -118.49513 3196 ft 199 kts 268°
2026-05-08 01:21 33.94231 -118.51233 3414 ft 220 kts 262°
2026-05-08 01:21 33.94041 -118.53173 3582 ft 247 kts 266°
2026-05-08 01:21 33.93876 -118.55281 4121 ft 254 kts 265°
2026-05-08 01:22 33.93684 -118.57414 4712 ft 258 kts 265°
2026-05-08 01:22 33.93515 -118.59550 4968 ft 255 kts 266°
2026-05-08 01:22 33.93109 -118.61636 4979 ft 262 kts 244°
2026-05-08 01:22 33.91915 -118.63321 4991 ft 270 kts 219°
2026-05-08 01:23 33.90205 -118.64263 4998 ft 275 kts 194°
2026-05-08 01:23 33.88266 -118.64373 5240 ft 281 kts 187°
2026-05-08 01:23 33.86424 -118.64998 5947 ft 275 kts 210°
2026-05-08 01:23 33.84743 -118.66123 6621 ft 279 kts 212°
2026-05-08 01:24 33.83036 -118.67284 7248 ft 285 kts 213°
2026-05-08 01:24 33.81355 -118.68570 7913 ft 288 kts 217°
2026-05-08 01:24 33.79557 -118.69685 8613 ft 294 kts 201°
2026-05-08 01:24 33.77571 -118.70354 9300 ft 302 kts 183°
2026-05-08 01:25 33.75535 -118.69820 10073 ft 302 kts 151°
2026-05-08 01:25 33.73869 -118.68251 10576 ft 313 kts 129°
2026-05-08 01:25 33.72694 -118.65964 10818 ft 332 kts 111°
2026-05-08 01:25 33.72011 -118.63313 11339 ft 339 kts 102°
2026-05-08 01:26 33.71493 -118.60548 12139 ft 339 kts 100°
2026-05-08 01:26 33.70945 -118.57774 12731 ft 348 kts 102°
2026-05-08 01:26 33.70355 -118.54885 13099 ft 362 kts 103°
2026-05-08 01:26 33.69699 -118.51896 13353 ft 379 kts 105°
2026-05-08 01:27 33.68849 -118.48830 13703 ft 391 kts 109°
2026-05-08 01:27 33.67891 -118.45758 14298 ft 393 kts 109°
2026-05-08 01:27 33.66948 -118.42669 14891 ft 396 kts 108°
2026-05-08 01:27 33.66010 -118.39543 15484 ft 399 kts 108°
2026-05-08 01:28 33.65074 -118.36386 16060 ft 403 kts 107°
2026-05-08 01:28 33.64392 -118.33110 16584 ft 406 kts 96°
2026-05-08 01:28 33.64298 -118.29724 17157 ft 407 kts 88°
2026-05-08 01:28 33.64364 -118.26314 17738 ft 410 kts 88°
2026-05-08 01:29 33.64401 -118.24040 18096 ft 413 kts 88°
2026-05-08 01:29 33.64441 -118.20569 18578 ft 417 kts 88°
2026-05-08 01:29 33.64465 -118.15936 19224 ft 421 kts 88°
2026-05-08 01:29 33.64469 -118.12416 19710 ft 424 kts 89°
2026-05-08 01:30 33.64469 -118.10024 20026 ft 426 kts 89°
2026-05-08 01:30 33.64465 -118.06448 20498 ft 429 kts 88°
2026-05-08 01:30 33.64460 -118.02863 20995 ft 431 kts 88°
2026-05-08 01:30 33.64454 -117.99252 21462 ft 434 kts 88°
2026-05-08 01:31 33.64448 -117.95621 21898 ft 437 kts 88°
2026-05-08 01:31 33.64442 -117.91953 22329 ft 440 kts 88°
2026-05-08 01:31 33.64434 -117.88310 22751 ft 443 kts 88°
2026-05-08 01:31 33.64426 -117.84600 23174 ft 446 kts 88°
2026-05-08 01:32 33.64375 -117.80868 23574 ft 450 kts 92°
2026-05-08 01:32 33.63927 -117.77134 23898 ft 455 kts 102°
2026-05-08 01:32 33.63045 -117.73470 24266 ft 457 kts 105°
2026-05-08 01:32 33.61950 -117.69217 24662 ft 460 kts 105°
2026-05-08 01:33 33.61008 -117.65550 24979 ft 462 kts 105°
2026-05-08 01:33 33.60068 -117.61846 25298 ft 464 kts 105°
2026-05-08 01:33 33.59138 -117.58134 25616 ft 466 kts 104°
2026-05-08 01:33 33.58210 -117.54398 25954 ft 468 kts 104°
2026-05-08 01:34 33.57283 -117.50651 26284 ft 469 kts 104°
2026-05-08 01:34 33.56355 -117.46902 26650 ft 470 kts 104°
2026-05-08 01:34 33.55423 -117.43147 27056 ft 470 kts 104°
2026-05-08 01:34 33.54492 -117.39398 27522 ft 468 kts 104°
2026-05-08 01:35 33.53561 -117.35663 28041 ft 466 kts 104°
2026-05-08 01:35 33.52635 -117.31947 28519 ft 465 kts 104°
2026-05-08 01:35 33.51709 -117.28236 28986 ft 464 kts 104°
2026-05-08 01:35 33.50830 -117.24529 29453 ft 462 kts 100°
2026-05-08 01:36 33.50342 -117.20745 29911 ft 458 kts 90°
2026-05-08 01:36 33.50272 -117.16945 30368 ft 455 kts 88°
2026-05-08 01:36 33.50256 -117.13158 30784 ft 454 kts 88°
2026-05-08 01:36 33.50244 -117.09384 31160 ft 454 kts 88°
2026-05-08 01:37 33.50234 -117.05597 31566 ft 452 kts 86°
2026-05-08 01:37 33.50423 -117.01851 31976 ft 449 kts 82°
2026-05-08 01:37 33.50729 -116.98184 32361 ft 447 kts 81°
2026-05-08 01:37 33.51081 -116.94488 32741 ft 446 kts 81°
2026-05-08 01:38 33.51436 -116.90797 33125 ft 445 kts 81°
2026-05-08 01:38 33.51779 -116.87111 33504 ft 445 kts 81°
2026-05-08 01:38 33.52107 -116.83433 33921 ft 442 kts 82°
2026-05-08 01:38 33.52422 -116.79776 34314 ft 440 kts 82°
2026-05-08 01:39 33.52726 -116.76128 34554 ft 441 kts 80°
2026-05-08 01:39 33.53031 -116.72474 34751 ft 442 kts 81°
2026-05-08 01:39 33.53328 -116.68806 35072 ft 441 kts 82°
2026-05-08 01:39 33.53621 -116.65146 35362 ft 440 kts 82°
2026-05-08 01:40 33.53913 -116.61496 35581 ft 441 kts 81°
2026-05-08 01:40 33.54205 -116.57834 35842 ft 441 kts 81°
2026-05-08 01:40 33.54485 -116.54169 36105 ft 442 kts 82°
2026-05-08 01:40 33.54774 -116.50503 36335 ft 443 kts 82°
2026-05-08 01:41 33.55070 -116.46827 36571 ft 442 kts 82°
2026-05-08 01:41 33.55367 -116.43160 36902 ft 441 kts 82°
2026-05-08 01:41 33.55660 -116.39503 37207 ft 440 kts 82°
2026-05-08 01:41 33.55950 -116.35836 37422 ft 440 kts 82°
2026-05-08 01:42 33.56237 -116.32181 37668 ft 440 kts 82°
2026-05-08 01:42 33.56522 -116.28526 37931 ft 440 kts 82°
2026-05-08 01:42 33.56802 -116.24928 38156 ft 439 kts 82°
2026-05-08 01:42 33.57084 -116.21279 38366 ft 440 kts 82°
2026-05-08 01:43 33.57367 -116.17623 38543 ft 441 kts 82°
2026-05-08 01:43 33.57648 -116.13958 38723 ft 440 kts 82°
2026-05-08 01:43 33.57929 -116.10300 38807 ft 443 kts 82°
2026-05-08 01:44 33.58494 -116.02890 38825 ft 449 kts 82°
2026-05-08 01:44 33.59062 -115.95377 38825 ft 455 kts 82°
2026-05-08 01:45 33.59629 -115.87796 38828 ft 457 kts 81°
2026-05-08 01:45 33.60193 -115.80194 38827 ft 457 kts 82°
2026-05-08 01:46 33.60751 -115.72608 38821 ft 456 kts 82°
2026-05-08 01:46 33.61301 -115.65088 38825 ft 455 kts 82°
2026-05-08 01:47 33.61823 -115.57543 38830 ft 454 kts 84°
2026-05-08 01:47 33.61740 -115.49964 38828 ft 454 kts 89°
2026-05-08 01:48 33.61344 -115.38645 38837 ft 452 kts 89°
2026-05-08 01:48 33.61128 -115.31111 38842 ft 451 kts 89°
2026-05-08 01:49 33.60933 -115.23580 38842 ft 452 kts 89°
2026-05-08 01:49 33.60736 -115.16041 38835 ft 453 kts 89°
2026-05-08 01:50 33.60531 -115.08484 38833 ft 453 kts 89°
2026-05-08 01:50 33.60323 -115.00964 38863 ft 454 kts 89°
2026-05-08 01:51 33.60054 -114.93384 38840 ft 453 kts 85°
2026-05-08 01:51 33.59915 -114.85819 38844 ft 455 kts 89°
2026-05-08 01:52 33.59658 -114.78235 38840 ft 454 kts 89°
2026-05-08 01:52 33.59228 -114.70668 38843 ft 456 kts 92°
2026-05-08 01:53 33.58637 -114.64383 38843 ft 456 kts 93°
2026-05-08 01:53 33.57902 -114.56821 38840 ft 456 kts 93°
2026-05-08 01:54 33.57204 -114.49303 38837 ft 456 kts 93°
2026-05-08 01:54 33.56517 -114.41745 38836 ft 456 kts 93°
2026-05-08 01:55 33.55816 -114.34184 38829 ft 455 kts 92°
2026-05-08 01:55 33.55092 -114.26659 38828 ft 453 kts 92°
2026-05-08 01:56 33.54432 -114.19167 38837 ft 451 kts 92°
2026-05-08 01:56 33.53751 -114.11706 38842 ft 450 kts 92°
2026-05-08 01:57 33.53050 -114.04253 38834 ft 449 kts 93°
2026-05-08 01:57 33.52285 -113.96830 38860 ft 449 kts 94°
2026-05-08 01:58 33.51699 -113.89397 38910 ft 448 kts 92°
2026-05-08 01:58 33.50991 -113.81957 38941 ft 450 kts 93°
2026-05-08 01:59 33.50244 -113.74483 38987 ft 452 kts 93°
2026-05-08 01:59 33.49516 -113.66988 39007 ft 454 kts 93°
2026-05-08 02:00 33.48791 -113.59449 39011 ft 456 kts 93°
2026-05-08 02:00 33.48065 -113.51935 38998 ft 458 kts 93°
2026-05-08 02:01 33.47328 -113.44351 38962 ft 459 kts 93°
2026-05-08 02:01 33.46934 -113.40558 38857 ft 460 kts 96°
2026-05-08 02:01 33.46210 -113.36815 38799 ft 465 kts 107°
2026-05-08 02:02 33.44816 -113.33319 38875 ft 466 kts 118°
2026-05-08 02:02 33.42984 -113.30093 38814 ft 470 kts 128°
2026-05-08 02:02 33.38616 -113.24259 38829 ft 471 kts 131°
2026-05-08 02:03 33.34179 -113.18500 38825 ft 471 kts 130°
2026-05-08 02:03 33.29773 -113.12691 38824 ft 471 kts 130°
2026-05-08 02:04 33.25380 -113.06956 38822 ft 471 kts 131°
2026-05-08 02:04 33.21032 -113.01094 38828 ft 471 kts 130°
2026-05-08 02:05 33.16671 -112.95248 38829 ft 471 kts 130°
2026-05-08 02:05 33.12284 -112.89432 38824 ft 472 kts 130°
2026-05-08 02:06 33.07886 -112.83617 38821 ft 472 kts 130°
2026-05-08 02:06 33.03484 -112.77794 38873 ft 473 kts 131°
2026-05-08 02:07 32.99064 -112.71995 38873 ft 473 kts 129°
2026-05-08 02:07 32.97138 -112.68824 38643 ft 474 kts 117°
2026-05-08 02:07 32.95756 -112.65278 38067 ft 470 kts 107°
2026-05-08 02:08 32.94903 -112.61563 37489 ft 461 kts 95°
2026-05-08 02:08 32.94561 -112.57798 36938 ft 454 kts 91°
2026-05-08 02:08 32.94260 -112.54067 36324 ft 451 kts 91°
2026-05-08 02:08 32.93993 -112.50374 35737 ft 446 kts 91°
2026-05-08 02:09 32.93710 -112.46700 35054 ft 445 kts 91°
2026-05-08 02:09 32.93405 -112.43044 34433 ft 442 kts 90°
2026-05-08 02:09 32.93087 -112.39415 33783 ft 440 kts 90°
2026-05-08 02:09 32.92760 -112.35798 33020 ft 438 kts 90°
2026-05-08 02:10 32.92431 -112.32207 32365 ft 435 kts 90°
2026-05-08 02:10 32.92107 -112.28708 31919 ft 427 kts 90°
2026-05-08 02:10 32.91784 -112.25214 31406 ft 422 kts 90°
2026-05-08 02:10 32.91465 -112.21764 30936 ft 417 kts 90°
2026-05-08 02:11 32.91150 -112.18350 30464 ft 414 kts 90°
2026-05-08 02:11 32.90837 -112.14942 30013 ft 415 kts 90°
2026-05-08 02:11 32.90521 -112.11511 29539 ft 416 kts 90°
2026-05-08 02:11 32.90204 -112.08103 28991 ft 411 kts 91°
2026-05-08 02:12 32.89890 -112.04755 28508 ft 404 kts 91°
2026-05-08 02:12 32.89584 -112.01491 28046 ft 399 kts 91°
2026-05-08 02:12 32.89277 -111.98219 27552 ft 395 kts 91°
2026-05-08 02:12 32.88945 -111.94984 27054 ft 393 kts 96°
2026-05-08 02:13 32.88016 -111.91902 26584 ft 401 kts 113°
2026-05-08 02:13 32.86383 -111.89176 26127 ft 410 kts 128°
2026-05-08 02:13 32.84161 -111.86978 25670 ft 420 kts 139°
2026-05-08 02:13 32.81747 -111.85000 25209 ft 421 kts 141°
2026-05-08 02:14 32.79321 -111.83067 24710 ft 419 kts 141°
2026-05-08 02:14 32.76915 -111.81146 24248 ft 416 kts 141°
2026-05-08 02:14 32.74552 -111.79237 23767 ft 413 kts 141°
2026-05-08 02:14 32.72181 -111.77335 23294 ft 410 kts 143°
2026-05-08 02:15 32.69840 -111.75432 22732 ft 405 kts 140°
2026-05-08 02:15 32.67561 -111.73500 22270 ft 400 kts 140°
2026-05-08 02:15 32.65300 -111.71615 21809 ft 395 kts 141°
2026-05-08 02:15 32.63055 -111.69760 21348 ft 391 kts 141°
2026-05-08 02:16 32.60830 -111.67929 20891 ft 387 kts 141°
2026-05-08 02:16 32.58625 -111.66115 20443 ft 383 kts 142°
2026-05-08 02:16 32.56454 -111.64316 20004 ft 379 kts 140°
2026-05-08 02:16 32.54498 -111.62262 19589 ft 372 kts 129°
2026-05-08 02:17 32.52910 -111.59888 19186 ft 365 kts 123°
2026-05-08 02:17 32.51425 -111.57458 18751 ft 363 kts 123°
2026-05-08 02:17 32.49936 -111.55048 18389 ft 361 kts 123°
2026-05-08 02:17 32.48444 -111.52660 17926 ft 360 kts 124°
2026-05-08 02:18 32.46951 -111.50293 17459 ft 358 kts 124°
2026-05-08 02:18 32.45464 -111.47942 17037 ft 355 kts 124°
2026-05-08 02:18 32.43998 -111.45627 16848 ft 346 kts 124°
2026-05-08 02:18 32.42569 -111.43370 16708 ft 342 kts 124°
2026-05-08 02:19 32.41126 -111.41085 16582 ft 351 kts 124°
2026-05-08 02:19 32.39650 -111.38751 16436 ft 356 kts 124°
2026-05-08 02:19 32.38167 -111.36411 16274 ft 354 kts 124°
2026-05-08 02:19 32.36655 -111.34123 16115 ft 354 kts 130°
2026-05-08 02:20 32.34693 -111.32321 15784 ft 360 kts 146°
2026-05-08 02:20 32.32586 -111.30803 15432 ft 357 kts 147°
2026-05-08 02:20 32.30465 -111.29278 15091 ft 355 kts 146°
2026-05-08 02:20 32.28378 -111.27741 14752 ft 351 kts 146°
2026-05-08 02:21 32.26326 -111.26215 14431 ft 346 kts 145°
2026-05-08 02:21 32.24310 -111.24709 14114 ft 341 kts 145°
2026-05-08 02:21 32.22316 -111.23212 13794 ft 336 kts 145°
2026-05-08 02:21 32.20361 -111.21740 13458 ft 331 kts 146°
2026-05-08 02:22 32.18414 -111.20302 13122 ft 327 kts 147°
2026-05-08 02:22 32.16490 -111.18919 12818 ft 321 kts 146°
2026-05-08 02:22 32.14628 -111.17492 12492 ft 317 kts 147°
2026-05-08 02:22 32.12777 -111.16108 12194 ft 313 kts 145°
2026-05-08 02:23 32.10955 -111.14707 11873 ft 311 kts 146°
2026-05-08 02:23 32.09122 -111.13371 11576 ft 309 kts 145°
2026-05-08 02:23 32.07442 -111.11866 11439 ft 300 kts 137°
2026-05-08 02:23 32.05868 -111.10237 11092 ft 301 kts 136°
2026-05-08 02:24 32.04301 -111.08591 10790 ft 301 kts 137°
2026-05-08 02:24 32.02736 -111.06964 10496 ft 300 kts 137°
2026-05-08 02:24 32.01173 -111.05385 10199 ft 300 kts 137°
2026-05-08 02:24 31.99594 -111.03773 9878 ft 298 kts 139°
2026-05-08 02:25 31.98044 -111.02189 9541 ft 292 kts 137°
2026-05-08 02:25 31.96517 -111.00636 9226 ft 288 kts 138°
2026-05-08 02:25 31.95006 -110.99119 8919 ft 284 kts 137°
2026-05-08 02:25 31.93504 -110.97614 8641 ft 282 kts 138°
2026-05-08 02:26 31.92068 -110.96035 8357 ft 282 kts 133°
2026-05-08 02:26 31.90682 -110.94401 8073 ft 283 kts 134°
2026-05-08 02:26 31.89285 -110.92761 7774 ft 284 kts 132°
2026-05-08 02:26 31.88226 -110.90837 7459 ft 281 kts 106°
2026-05-08 02:27 31.88025 -110.88602 7181 ft 272 kts 79°
2026-05-08 02:27 31.88622 -110.86530 7023 ft 260 kts 57°
2026-05-08 02:27 31.89707 -110.84914 6908 ft 251 kts 45°
2026-05-08 02:27 31.90923 -110.83492 6816 ft 241 kts 42°
2026-05-08 02:28 31.92087 -110.82149 6712 ft 228 kts 44°
2026-05-08 02:28 31.93172 -110.80866 6594 ft 218 kts 42°
2026-05-08 02:28 31.94261 -110.79616 6449 ft 218 kts 43°
2026-05-08 02:28 31.95371 -110.78415 6328 ft 214 kts 32°
2026-05-08 02:29 31.96751 -110.77927 6109 ft 206 kts 357°
2026-05-08 02:29 31.98088 -110.78347 5885 ft 196 kts 332°
2026-05-08 02:29 31.99147 -110.79315 5633 ft 190 kts 318°
2026-05-08 02:29 32.00072 -110.80386 5406 ft 184 kts 317°
2026-05-08 02:30 32.00935 -110.81393 5214 ft 167 kts 318°
2026-05-08 02:30 32.01712 -110.82331 4962 ft 153 kts 316°
2026-05-08 02:30 32.02422 -110.83164 4774 ft 133 kts 318°
2026-05-08 02:30 32.03020 -110.83863 4567 ft 112 kts 322°
2026-05-08 02:31 32.03598 -110.84529 4150 ft 119 kts 314°
2026-05-08 02:31 32.04167 -110.85192 3865 ft 113 kts 315°
2026-05-08 02:31 32.04796 -110.85736 3436 ft 108 kts 318°
2026-05-08 02:31 32.05395 -110.86252 2832 ft 110 kts 311°